Westminster, MD

2:59 PM EST on November 20, 2017 (GMT -0500)
Carroll County Regional-Poage

Weather History for KDMW - February, 2014

Change the Weather History Date:

Wednesday, February 19, 2014

  Actual Average (KTHV) Record (KTHV)
Temperature  
Mean Temperature 42 °F -  
Max Temperature 51 °F 0 °F 68 °F (2017)
Min Temperature 32 °F - 1 °F (2015)
Degree Days  
Heating Degree Days 24    
Moisture  
Dew Point 33 °F    
Average Humidity 74    
Maximum Humidity 93    
Minimum Humidity 41    
Precipitation  
Precipitation 0.09 in - - ()
Sea Level Pressure  
Sea Level Pressure 29.89 in    
Wind  
Wind Speed 9 mph (SW)    
Max Wind Speed 23 mph    
Max Gust Speed 36 mph    
Visibility 10 miles    
Events Rain , Snow , Thunderstorm    
Averages and records for this station are not official NWS values.
T = Trace of Precipitation, MM = Missing Value Source: NWS Daily Summary

Daily Weather History Graph

Daily Weather History Graph

Search for Another Location

Airport or City:

Trip Planner

Search our weather history database for the weather conditions in past years. The results will help you decide how hot, cold, wet, or windy it might be!

Date:

Astronomy

Feb. 19, 2014 Rise Set
Actual Time 6:55 AM EST 5:49 PM EST
Civil Twilight 6:27 AM EST 6:16 PM EST
Nautical Twilight 5:56 AM EST 6:47 PM EST
Astronomical Twilight 5:25 AM EST 7:19 PM EST
Moon 10:39 PM EST (2/19) 9:00 AM EST (2/19)
Length of Visible Light 11h 48m
Length of Day
10h 53m
Waning Gibbous, 80% of the Moon is Illuminated
Feb 19
Waning Gibbous
Feb 22
Last Quarter
Mar 1
New
Mar 8
First Quarter
Mar 16
Full

Hourly Weather History & Observations

Time (EST) Temp. Windchill Dew Point Humidity Pressure Visibility Wind Dir Wind Speed Gust Speed Precip Events Conditions
12:15 AM 35.6 °F 28.0 °F 28.4 °F 75% 30.05 in 10.0 mi SE 10.4 mph - N/A   Clear
12:35 AM 35.6 °F 29.2 °F 28.4 °F 75% 30.06 in 10.0 mi SE 8.1 mph - N/A   Clear
12:55 AM 33.8 °F 29.6 °F 28.4 °F 81% 30.05 in 10.0 mi ESE 4.6 mph - N/A   Clear
1:15 AM 35.6 °F 28.6 °F 28.4 °F 75% 30.04 in 10.0 mi SE 9.2 mph - N/A   Clear
1:35 AM 33.8 °F 27.0 °F 28.4 °F 81% 30.03 in 10.0 mi SE 8.1 mph - N/A   Clear
1:55 AM 33.8 °F 27.0 °F 28.4 °F 81% 30.02 in 10.0 mi SE 8.1 mph - N/A   Clear
2:15 AM 33.8 °F 25.3 °F 28.4 °F 81% 29.99 in 10.0 mi SE 11.5 mph - N/A   Clear
2:35 AM 33.8 °F 25.8 °F 28.4 °F 81% 29.98 in 10.0 mi SE 10.4 mph - N/A   Clear
2:55 AM 33.8 °F 25.3 °F 28.4 °F 81% 29.97 in 10.0 mi SE 11.5 mph - N/A   Clear
3:15 AM 33.8 °F 27.0 °F 28.4 °F 81% 29.97 in 10.0 mi SSE 8.1 mph - N/A   Clear
3:35 AM 32.0 °F 23.6 °F 28.4 °F 87% 29.95 in 10.0 mi SE 10.4 mph - N/A   Clear
3:55 AM 32.0 °F 22.5 °F 28.4 °F 87% 29.94 in 10.0 mi SE 12.7 mph - N/A   Scattered Clouds
4:15 AM 33.8 °F 27.0 °F 28.4 °F 81% 29.93 in 10.0 mi SE 8.1 mph - N/A   Mostly Cloudy
4:35 AM 33.8 °F 25.3 °F 26.6 °F 75% 29.91 in 10.0 mi SE 11.5 mph - N/A   Scattered Clouds
4:55 AM 33.8 °F 27.7 °F 28.4 °F 81% 29.91 in 10.0 mi SE 6.9 mph - N/A   Mostly Cloudy
5:15 AM 33.8 °F 25.8 °F 28.4 °F 81% 29.88 in 10.0 mi SE 10.4 mph - N/A   Mostly Cloudy
5:35 AM 33.8 °F 28.6 °F 28.4 °F 81% 29.88 in 10.0 mi SE 5.8 mph - N/A   Mostly Cloudy
5:55 AM 33.8 °F 28.6 °F 28.4 °F 81% 29.88 in 10.0 mi SSE 5.8 mph - N/A   Scattered Clouds
6:15 AM 33.8 °F 29.6 °F 28.4 °F 81% 29.86 in 10.0 mi SE 4.6 mph - N/A   Mostly Cloudy
6:35 AM 35.6 °F 28.6 °F 26.6 °F 70% 29.83 in 10.0 mi SSE 9.2 mph - N/A   Overcast
6:55 AM 37.4 °F 29.3 °F 26.6 °F 65% 29.82 in 10.0 mi South 12.7 mph 20.7 mph N/A   Mostly Cloudy
7:15 AM 37.4 °F 31.4 °F 28.4 °F 70% 29.82 in 10.0 mi SSE 8.1 mph - N/A   Mostly Cloudy
7:35 AM 37.4 °F 32.1 °F 28.4 °F 70% 29.82 in 10.0 mi South 6.9 mph - N/A   Overcast
7:55 AM 39.2 °F 33.6 °F 28.4 °F 65% 29.86 in 10.0 mi WNW 8.1 mph - N/A   Overcast
8:15 AM 35.6 °F - 28.4 °F 75% 29.83 in 7.0 mi Calm Calm - N/A Rain Rain
8:35 AM 35.6 °F 30.7 °F 30.2 °F 81% 29.86 in 1.8 mi WNW 5.8 mph - 0.02 in Rain Rain
8:55 AM 35.6 °F 31.7 °F 30.2 °F 81% 29.84 in 1.0 mi SSE 4.6 mph - 0.02 in Snow , Thunderstorm Light Thunderstorms and Snow
9:15 AM 35.6 °F 31.7 °F 32.0 °F 87% 29.82 in 4.0 mi SE 4.6 mph - 0.03 in Rain , Thunderstorm Thunderstorms and Rain
9:35 AM 37.4 °F - 33.8 °F 87% 29.82 in 7.0 mi Calm Calm - 0.04 in Rain , Thunderstorm Light Thunderstorms and Rain
9:55 AM 37.4 °F 31.4 °F 33.8 °F 87% 29.81 in 7.0 mi SSW 8.1 mph - N/A Rain Light Rain
10:15 AM 39.2 °F 35.0 °F 35.6 °F 87% 29.80 in 7.0 mi SSW 5.8 mph - 0.01 in Rain Light Rain
10:35 AM 39.2 °F 35.0 °F 37.4 °F 93% 29.79 in 10.0 mi SSW 5.8 mph - 0.01 in Thunderstorm Scattered Clouds
10:55 AM 39.2 °F 35.0 °F 37.4 °F 93% 29.79 in 10.0 mi WSW 5.8 mph - N/A   Clear
11:15 AM 39.2 °F 34.2 °F 37.4 °F 93% 29.78 in 10.0 mi WSW 6.9 mph - N/A   Clear
11:35 AM 41.0 °F 36.4 °F 37.4 °F 87% 29.77 in 10.0 mi SW 6.9 mph - N/A   Clear
11:55 AM 42.8 °F 38.6 °F 39.2 °F 87% 29.76 in 10.0 mi WSW 6.9 mph - N/A   Clear
12:15 PM 42.8 °F 38.0 °F 39.2 °F 87% 29.76 in 10.0 mi WSW 8.1 mph - N/A   Clear
12:35 PM 44.6 °F 40.7 °F 39.2 °F 81% 29.74 in 10.0 mi WSW 6.9 mph - N/A   Clear
12:55 PM 44.6 °F 41.4 °F 39.2 °F 81% 29.73 in 10.0 mi WSW 5.8 mph - N/A   Clear
1:15 PM 44.6 °F 42.2 °F 39.2 °F 81% 29.72 in 10.0 mi SW 4.6 mph - N/A   Clear
1:35 PM 46.4 °F 44.3 °F 39.2 °F 76% 29.71 in 10.0 mi WSW 4.6 mph - N/A   Clear
1:55 PM 46.4 °F 43.5 °F 39.2 °F 76% 29.71 in 10.0 mi SW 5.8 mph - N/A   Clear
2:15 PM 48.2 °F - 39.2 °F 71% 29.70 in 10.0 mi SW 3.5 mph - N/A   Clear
2:35 PM 48.2 °F - 39.2 °F 71% 29.70 in 10.0 mi WSW 6.9 mph - N/A   Clear
2:55 PM 48.2 °F - 39.2 °F 71% 29.71 in 10.0 mi West 5.8 mph - N/A Thunderstorm Scattered Clouds
3:15 PM 46.4 °F 43.5 °F 41.0 °F 81% 29.74 in 10.0 mi WNW 5.8 mph - 0.02 in Rain Light Rain
3:35 PM 44.6 °F 40.7 °F 39.2 °F 81% 29.74 in 10.0 mi SW 6.9 mph - 0.02 in Thunderstorm Clear
3:55 PM 46.4 °F 44.3 °F 41.0 °F 81% 29.75 in 10.0 mi WSW 4.6 mph - N/A   Clear
4:15 PM 46.4 °F 42.9 °F 41.0 °F 81% 29.76 in 10.0 mi SSW 6.9 mph - N/A   Clear
4:35 PM 46.4 °F 42.4 °F 42.8 °F 87% 29.77 in 10.0 mi SW 8.1 mph - N/A   Clear
4:55 PM 48.2 °F - 42.8 °F 82% 29.78 in 10.0 mi SW 6.9 mph - N/A   Clear
5:15 PM 50.0 °F - 39.2 °F 66% 29.80 in 10.0 mi West 9.2 mph - N/A   Clear
5:35 PM 51.8 °F - 35.6 °F 54% 29.82 in 10.0 mi West 17.3 mph 21.9 mph N/A   Clear
6:00 PM 51.8 °F - 28.4 °F 41% 29.85 in 10.0 mi West 18.4 mph 27.6 mph N/A   Clear
6:20 PM 50.0 °F - 28.4 °F 43% 29.87 in 10.0 mi West 10.4 mph - N/A   Clear
6:40 PM 50.0 °F - 28.4 °F 43% 29.89 in 10.0 mi West 17.3 mph 28.8 mph N/A   Clear
7:00 PM 48.2 °F - 30.2 °F 50% 29.92 in 10.0 mi WNW 23.0 mph 29.9 mph N/A   Clear
7:20 PM 48.2 °F - 30.2 °F 50% 29.94 in 10.0 mi WNW 21.9 mph 35.7 mph N/A   Clear
7:40 PM 46.4 °F 38.7 °F 30.2 °F 53% 29.96 in 10.0 mi WNW 20.7 mph 31.1 mph N/A   Clear
8:00 PM 46.4 °F 38.3 °F 32.0 °F 57% 29.98 in 10.0 mi WNW 23.0 mph 32.2 mph N/A   Clear
8:20 PM 46.4 °F 39.0 °F 30.2 °F 53% 30.01 in 10.0 mi WNW 19.6 mph 28.8 mph N/A   Clear
8:40 PM 44.6 °F 36.4 °F 32.0 °F 61% 30.02 in 10.0 mi WNW 20.7 mph 27.6 mph N/A   Clear
9:00 PM 44.6 °F 39.2 °F 32.0 °F 61% 30.04 in 10.0 mi WNW 10.4 mph 19.6 mph N/A   Clear
9:20 PM 44.6 °F 37.8 °F 32.0 °F 61% 30.06 in 10.0 mi WNW 15.0 mph - N/A   Clear
9:40 PM 42.8 °F 34.5 °F 30.2 °F 61% 30.06 in 10.0 mi WNW 18.4 mph 25.3 mph N/A   Clear
10:00 PM 42.8 °F 36.6 °F 30.2 °F 61% 30.07 in 10.0 mi WNW 11.5 mph - N/A   Clear
10:20 PM 42.8 °F 37.5 °F 30.2 °F 61% 30.09 in 10.0 mi WNW 9.2 mph 17.3 mph N/A   Clear
10:40 PM 41.0 °F 36.4 °F 35.6 °F 81% 30.10 in 10.0 mi WNW 6.9 mph - N/A   Clear
11:00 PM 41.0 °F 36.4 °F 35.6 °F 81% 30.12 in 10.0 mi WNW 6.9 mph - N/A   Clear
11:20 PM 41.0 °F 36.4 °F 33.8 °F 76% 30.13 in 10.0 mi WNW 6.9 mph - N/A   Clear
11:40 PM 39.2 °F 35.0 °F 33.8 °F 81% 30.13 in 10.0 mi West 5.8 mph - N/A   Clear